Home   Weather   Rawalpindi   Past weeks

Flag for Pakistan Past Weather in Rawalpindi, Pakistan — Yesterday and Last 2 Weeks

Now
86 °F

Passing clouds.


Feels Like: 91 °F
Forecast: 73 / 95 °F
Wind: 9 mph from Southeast

Location: Islamabad Airport

Current Time: Aug 30, 2016 at 8:08:11 PM

Latest Report: Aug 30, 2016 at 7:00 PM


Visibility: N/A

Pressure: 29.65 "Hg (28.02 "Hg at 501m altitude)

Humidity: 59%

Dew Point: 70 °F

Location of RawalpindiLocation

Past Weather in Rawalpindi — Graph

°F

Rawalpindi Temperature Yesterday

Maximum temperature yesterday: 95 °F (at 2:00 PM)
Minimum temperature yesterday: 73 °F (at 5:00 AM)
Average temperature yesterday: 85 °F

High & Low Weather Summary for the Past Weeks

 TemperatureHumidityPressure
High99 °F (Aug 19, 3:00 PM)94% (Aug 17, 5:00 PM)31.84 "Hg (Aug 17, 5:00 PM)
Low70 °F (Aug 30, 3:00 AM)19% (Aug 22, 7:00 AM)29.47 "Hg (Aug 16, 5:00 PM)
Average85 °F64%29.70 "Hg
* Reported Aug 15 7:00 PM — Aug 30 7:00 PM, Rawalpindi, Weather by CustomWeather, © 2016

Note: Actual official high and low records may vary slightly from our data, if they occured in-between our weather recording intervals... More about our weather records

Advertising

Rawalpindi Weather History for the Previous 24 Hours

Scroll right to see more
 ConditionsComfort  
Time TempWeatherWind HumidityBarometerVisibility
7:00 PM
Tue, Aug 30
86 °FPassing clouds.9 mph59%29.65 "HgN/A
6:00 PM86 °FScattered clouds.9 mph59%29.62 "HgN/A
5:30 PM88 °FScattered clouds.9 mph55%29.62 "HgN/A
5:00 PM88 °FScattered clouds.9 mph55%29.62 "HgN/A
4:30 PM90 °FScattered clouds.9 mph52%29.65 "HgN/A
4:00 PM90 °FScattered clouds.9 mph52%29.65 "HgN/A
3:00 PM91 °FScattered clouds.5 mph56%29.68 "HgN/A
2:30 PM91 °FPassing clouds.5 mph56%29.68 "HgN/A
2:00 PM91 °FPassing clouds.5 mph56%29.68 "HgN/A
1:30 PM90 °FPassing clouds.5 mph52%29.71 "HgN/A
1:00 PM90 °FPassing clouds.5 mph52%29.71 "HgN/A
12:30 PM86 °FPassing clouds.5 mph59%29.71 "HgN/A
12:00 PM86 °FPassing clouds.5 mph59%29.71 "HgN/A
11:30 AM82 °FPassing clouds.5 mph66%29.71 "HgN/A
11:00 AM82 °FPassing clouds.5 mph66%29.71 "HgN/A
10:30 AM81 °FPassing clouds.5 mph70%29.74 "HgN/A
10:00 AM81 °FPassing clouds.5 mph70%29.74 "HgN/A
9:30 AM79 °FSunny.No wind74%29.71 "Hg10 mi
8:30 AM75 °FSunny.5 mph78%29.71 "Hg10 mi
8:00 AM75 °FSunny.5 mph78%29.71 "Hg10 mi
7:30 AM73 °FScattered clouds.7 mph83%29.71 "Hg5 mi
7:00 AM73 °FScattered clouds.7 mph83%29.71 "Hg5 mi
6:00 AM73 °FScattered clouds.7 mph83%29.68 "Hg4 mi
4:00 AM70 °FThunderstorms. Partly cloudy.16 mph94%29.71 "Hg2 mi
3:00 AM70 °FThunderstorms. Partly cloudy.18 mph94%29.74 "Hg2 mi
2:30 AM73 °FThunderstorms. Partly cloudy.18 mph78%29.74 "Hg2 mi
2:00 AM77 °FThunderstorms. Passing clouds.16 mph69%29.74 "Hg2 mi
1:30 AM77 °FThunderstorms. Passing clouds.21 mph74%29.71 "Hg2 mi
1:00 AM77 °FThunderstorms. Passing clouds.18 mph74%29.71 "Hg4 mi
12:30 AM79 °FThunderstorms. Passing clouds.18 mph70%29.74 "Hg4 mi
12:00 AM79 °FThundershowers. Passing clouds.16 mph70%29.74 "Hg4 mi
11:30 PM
Mon, Aug 29
79 °FThundershowers. Passing clouds.23 mph74%29.74 "Hg4 mi
11:00 PM79 °FThundershowers. Passing clouds.23 mph74%29.74 "Hg4 mi
10:30 PM82 °FThundershowers. Passing clouds.21 mph70%29.74 "Hg4 mi
10:00 PM82 °FThundershowers. Passing clouds.18 mph70%29.74 "Hg4 mi
9:30 PM86 °FThundershowers. Passing clouds.18 mph66%29.71 "Hg4 mi
9:00 PM86 °FThundershowers. Passing clouds.18 mph66%29.71 "Hg4 mi
8:00 PM90 °FThundershowers. Passing clouds.16 mph63%29.68 "Hg4 mi
Weather by CustomWeather, © 2016

See weather overviewHow to use our weather pages